,,PA_Meas_PMT16A,,PR_Meas_QMR101_102,,RH_Meas_QMH101,,SR_Meas_QMS101,,TA_Meas_QMH101,,GenWind,,GenWind,
time,status,PA,status,PR,status,RH,status,SR,status,TA,status,DirAvg,status,SpdAvg,
2014-11-22, 00:00:04,VALID,917.655,VALID,0,VALID,97.7703,VALID,0,VALID,20.7154,VALID,43,VALID,0.757422,
2014-11-22, 00:01:04,VALID,917.648,VALID,0,VALID,97.7856,VALID,0,VALID,20.6975,VALID,43,VALID,0.667578,
2014-11-22, 00:02:04,VALID,917.655,VALID,0,VALID,97.8008,VALID,0,VALID,20.6764,VALID,43,VALID,0.820313,
2014-11-22, 00:03:04,VALID,917.653,VALID,0,VALID,97.8008,VALID,0.107441,VALID,20.6764,VALID,43,VALID,0,
2014-11-22, 00:04:04,VALID,917.628,VALID,0,VALID,97.7703,VALID,0,VALID,20.6764,VALID,43,VALID,0,
2014-11-22, 00:05:04,VALID,917.653,VALID,0,VALID,97.7627,VALID,0.107441,VALID,20.6764,VALID,42,VALID,0,
2014-11-22, 00:06:04,VALID,917.636,VALID,0,VALID,97.7779,VALID,0,VALID,20.678,VALID,42,VALID,0,
2014-11-22, 00:07:04,VALID,917.633,VALID,0,VALID,97.7779,VALID,0.107441,VALID,20.6975,VALID,43,VALID,0,
2014-11-22, 00:08:04,VALID,917.62,VALID,0,VALID,97.7856,VALID,0,VALID,20.6374,VALID,43,VALID,0,
2014-11-22, 00:09:04,VALID,917.602,VALID,0,VALID,97.7932,VALID,0,VALID,20.639,VALID,43,VALID,0,
2014-11-22, 00:10:04,VALID,917.594,VALID,0,VALID,97.7856,VALID,0,VALID,20.6585,VALID,43,VALID,0,
2014-11-22, 00:11:04,VALID,917.543,VALID,0,VALID,97.7932,VALID,0,VALID,20.6585,VALID,43,VALID,0,
2014-11-22, 00:12:04,VALID,917.578,VALID,0,VALID,97.7932,VALID,0.107441,VALID,20.6179,VALID,43,VALID,0,
2014-11-22, 00:13:04,VALID,917.575,VALID,0,VALID,97.7856,VALID,0,VALID,20.6585,VALID,43,VALID,0,
2014-11-22, 00:14:04,VALID,917.589,VALID,0,VALID,97.7627,VALID,0,VALID,20.6179,VALID,42,VALID,0,
2014-11-22, 00:15:04,VALID,917.523,VALID,0,VALID,97.7932,VALID,0,VALID,20.639,VALID,43,VALID,1.20625,
2014-11-22, 00:16:04,VALID,917.511,VALID,0,VALID,97.7856,VALID,0.107441,VALID,20.639,VALID,43,VALID,1.20508,
2014-11-22, 00:17:04,VALID,917.48,VALID,0,VALID,97.7856,VALID,0,VALID,20.6194,VALID,43,VALID,0.744141,
2014-11-22, 00:18:04,VALID,917.449,VALID,0,VALID,97.7856,VALID,0,VALID,20.5984,VALID,43,VALID,0.688672,
2014-11-22, 00:19:04,VALID,917.445,VALID,0,VALID,97.8008,VALID,0.107441,VALID,20.5999,VALID,43,VALID,1.1375,
2014-11-22, 00:20:04,VALID,917.425,VALID,0,VALID,97.7856,VALID,0.107441,VALID,20.5999,VALID,82,VALID,0.779297,
2014-11-22, 00:21:04,VALID,917.422,VALID,0,VALID,97.8084,VALID,0,VALID,20.5999,VALID,115,VALID,0.470703,
2014-11-22, 00:22:04,VALID,917.383,VALID,0,VALID,97.7703,VALID,0,VALID,20.5804,VALID,113,VALID,0.4875,
2014-11-22, 00:23:04,VALID,917.407,VALID,0,VALID,97.8084,VALID,0,VALID,20.5399,VALID,113,VALID,0,
2014-11-22, 00:24:04,VALID,917.376,VALID,0,VALID,97.8008,VALID,0,VALID,20.5609,VALID,116,VALID,0.201172,
2014-11-22, 00:25:04,VALID,917.358,VALID,0,VALID,97.8084,VALID,0,VALID,20.5609,VALID,107,VALID,0,
2014-11-22, 00:26:04,VALID,917.357,VALID,0,VALID,97.8008,VALID,0,VALID,20.5804,VALID,108,VALID,0,
2014-11-22, 00:27:04,VALID,917.373,VALID,0,VALID,97.816,VALID,0,VALID,20.5399,VALID,115,VALID,0,
2014-11-22, 00:28:04,VALID,917.386,VALID,0,VALID,97.8084,VALID,0,VALID,20.5399,VALID,112,VALID,0,
2014-11-22, 00:29:04,VALID,917.401,VALID,0,VALID,97.816,VALID,0,VALID,20.5399,VALID,111,VALID,0,
2014-11-22, 00:30:04,VALID,917.385,VALID,0,VALID,97.7932,VALID,0,VALID,20.5399,VALID,112,VALID,0,
2014-11-22, 00:31:04,VALID,917.382,VALID,0,VALID,97.8084,VALID,0,VALID,20.5804,VALID,111,VALID,0,
2014-11-22, 00:32:04,VALID,917.391,VALID,0,VALID,97.816,VALID,0,VALID,20.5999,VALID,111,VALID,0,
2014-11-22, 00:33:04,VALID,917.427,VALID,0,VALID,97.8084,VALID,0,VALID,20.6194,VALID,111,VALID,0,
2014-11-22, 00:34:04,VALID,917.434,VALID,0,VALID,97.8008,VALID,0,VALID,20.6194,VALID,111,VALID,0,
2014-11-22, 00:35:04,VALID,917.379,VALID,0,VALID,97.7932,VALID,0,VALID,20.6179,VALID,111,VALID,0,
2014-11-22, 00:36:04,VALID,917.427,VALID,0,VALID,97.8008,VALID,0,VALID,20.639,VALID,111,VALID,0,
2014-11-22, 00:37:04,VALID,917.429,VALID,0,VALID,97.8084,VALID,0,VALID,20.6194,VALID,111,VALID,0,
2014-11-22, 00:38:04,VALID,917.436,VALID,0,VALID,97.816,VALID,0,VALID,20.5984,VALID,111,VALID,0,
2014-11-22, 00:39:04,VALID,917.439,VALID,0,VALID,97.8008,VALID,0,VALID,20.5984,VALID,111,VALID,0,
2014-11-22, 00:40:04,VALID,917.445,VALID,0,VALID,97.8237,VALID,0,VALID,20.5999,VALID,111,VALID,0,
2014-11-22, 00:41:04,VALID,917.42,VALID,0,VALID,97.8313,VALID,0,VALID,20.5999,VALID,111,VALID,0,
2014-11-22, 00:42:04,VALID,917.393,VALID,0,VALID,97.8237,VALID,0,VALID,20.5999,VALID,111,VALID,0,
2014-11-22, 00:43:04,VALID,917.379,VALID,0,VALID,97.8237,VALID,0,VALID,20.5999,VALID,111,VALID,0,
2014-11-22, 00:44:04,VALID,917.347,VALID,0,VALID,97.8084,VALID,0,VALID,20.5804,VALID,111,VALID,0,
2014-11-22, 00:45:04,VALID,917.356,VALID,0,VALID,97.8237,VALID,0,VALID,20.5609,VALID,111,VALID,0,
2014-11-22, 00:46:05,VALID,917.322,VALID,0,VALID,97.816,VALID,0,VALID,20.5399,VALID,111,VALID,0,
2014-11-22, 00:47:05,VALID,917.297,VALID,0,VALID,97.8237,VALID,0,VALID,20.5609,VALID,111,VALID,0,
2014-11-22, 00:48:05,VALID,917.303,VALID,0,VALID,97.8237,VALID,0,VALID,20.5609,VALID,111,VALID,0,
2014-11-22, 00:49:05,VALID,917.286,VALID,0,VALID,97.8313,VALID,0,VALID,20.5609,VALID,111,VALID,0,
2014-11-22, 00:50:05,VALID,917.244,VALID,0,VALID,97.8237,VALID,0,VALID,20.5609,VALID,111,VALID,0,
2014-11-22, 00:51:05,VALID,917.236,VALID,0,VALID,97.8084,VALID,0,VALID,20.5804,VALID,111,VALID,0,
2014-11-22, 00:52:05,VALID,917.229,VALID,0,VALID,97.8237,VALID,0,VALID,20.5609,VALID,111,VALID,0,
2014-11-22, 00:53:05,VALID,917.206,VALID,0,VALID,97.8237,VALID,0,VALID,20.5609,VALID,111,VALID,0,
2014-11-22, 00:54:05,VALID,917.217,VALID,0,VALID,97.8389,VALID,0,VALID,20.5609,VALID,111,VALID,0,
2014-11-22, 00:55:05,VALID,917.172,VALID,0,VALID,97.8313,VALID,0,VALID,20.5594,VALID,111,VALID,0,
2014-11-22, 00:56:05,VALID,917.155,VALID,0,VALID,97.816,VALID,0,VALID,20.5789,VALID,111,VALID,0,
2014-11-22, 00:57:05,VALID,917.127,VALID,0,VALID,97.8084,VALID,0,VALID,20.5999,VALID,112,VALID,0,
2014-11-22, 00:58:05,VALID,917.142,VALID,0,VALID,97.816,VALID,0,VALID,20.5999,VALID,111,VALID,0,
2014-11-22, 00:59:05,VALID,917.103,VALID,0,VALID,97.816,VALID,0,VALID,20.5804,VALID,112,VALID,0,
2014-11-22, 01:00:05,VALID,917.109,VALID,0,VALID,97.8237,VALID,0,VALID,20.5789,VALID,113,VALID,0,
2014-11-22, 01:01:05,VALID,917.121,VALID,0,VALID,97.8084,VALID,0,VALID,20.6194,VALID,113,VALID,0,
2014-11-22, 01:02:05,VALID,917.102,VALID,0,VALID,97.8008,VALID,0,VALID,20.5984,VALID,113,VALID,0,
2014-11-22, 01:03:05,VALID,917.103,VALID,0,VALID,97.8237,VALID,0,VALID,20.6194,VALID,113,VALID,0,
2014-11-22, 01:04:05,VALID,917.094,VALID,0,VALID,97.8008,VALID,0,VALID,20.639,VALID,113,VALID,0,
2014-11-22, 01:05:05,VALID,917.094,VALID,0,VALID,97.8008,VALID,0,VALID,20.639,VALID,113,VALID,0,
2014-11-22, 01:06:05,VALID,917.092,VALID,0,VALID,97.816,VALID,0,VALID,20.639,VALID,113,VALID,0,
2014-11-22, 01:07:05,VALID,917.077,VALID,0,VALID,97.8084,VALID,0,VALID,20.6179,VALID,113,VALID,0,
2014-11-22, 01:08:05,VALID,917.063,VALID,0,VALID,97.8237,VALID,0,VALID,20.6194,VALID,113,VALID,0,
2014-11-22, 01:09:05,VALID,917.044,VALID,0,VALID,97.8389,VALID,0.107441,VALID,20.5984,VALID,113,VALID,0,
2014-11-22, 01:10:05,VALID,917.065,VALID,0,VALID,97.8237,VALID,0,VALID,20.5984,VALID,113,VALID,0,
2014-11-22, 01:11:05,VALID,917.032,VALID,0,VALID,97.816,VALID,0,VALID,20.6194,VALID,113,VALID,0,
2014-11-22, 01:12:05,VALID,917.043,VALID,0,VALID,97.816,VALID,0,VALID,20.6194,VALID,113,VALID,0,
2014-11-22, 01:13:05,VALID,917.038,VALID,0,VALID,97.8084,VALID,0,VALID,20.5984,VALID,113,VALID,0,
2014-11-22, 01:14:05,VALID,917.049,VALID,0,VALID,97.816,VALID,0.107441,VALID,20.6179,VALID,113,VALID,0,
2014-11-22, 01:15:05,VALID,916.995,VALID,0,VALID,97.816,VALID,0,VALID,20.639,VALID,113,VALID,0,
2014-11-22, 01:16:05,VALID,917.011,VALID,0,VALID,97.8313,VALID,0,VALID,20.6585,VALID,113,VALID,0,
2014-11-22, 01:17:05,VALID,916.986,VALID,0,VALID,97.816,VALID,0,VALID,20.6585,VALID,113,VALID,0,
2014-11-22, 01:18:05,VALID,916.988,VALID,0,VALID,97.816,VALID,0,VALID,20.6585,VALID,113,VALID,0,
2014-11-22, 01:19:05,VALID,917.002,VALID,0,VALID,97.816,VALID,0,VALID,20.678,VALID,113,VALID,0,
2014-11-22, 01:20:05,VALID,917.007,VALID,0,VALID,97.816,VALID,0,VALID,20.678,VALID,113,VALID,0,
2014-11-22, 01:21:05,VALID,916.982,VALID,0,VALID,97.8008,VALID,0,VALID,20.678,VALID,113,VALID,0,
2014-11-22, 01:22:05,VALID,917.001,VALID,0,VALID,97.8084,VALID,0,VALID,20.6585,VALID,113,VALID,0,
2014-11-22, 01:23:05,VALID,916.992,VALID,0,VALID,97.816,VALID,0,VALID,20.6585,VALID,113,VALID,0,
2014-11-22, 01:24:05,VALID,917.006,VALID,0,VALID,97.8084,VALID,0,VALID,20.639,VALID,113,VALID,0,
2014-11-22, 01:25:05,VALID,917.025,VALID,0,VALID,97.816,VALID,0,VALID,20.639,VALID,113,VALID,0,
2014-11-22, 01:26:05,VALID,917.03,VALID,0,VALID,97.816,VALID,0,VALID,20.639,VALID,113,VALID,0,
2014-11-22, 01:27:05,VALID,917.002,VALID,0,VALID,97.8008,VALID,0,VALID,20.639,VALID,113,VALID,0,
2014-11-22, 01:28:05,VALID,917.015,VALID,0,VALID,97.8389,VALID,0,VALID,20.6585,VALID,113,VALID,0,
2014-11-22, 01:29:05,VALID,916.959,VALID,0,VALID,97.816,VALID,0,VALID,20.6585,VALID,113,VALID,0,
2014-11-22, 01:30:05,VALID,916.961,VALID,0,VALID,97.816,VALID,0,VALID,20.6585,VALID,113,VALID,0,
2014-11-22, 01:31:05,VALID,916.945,VALID,0,VALID,97.8389,VALID,0,VALID,20.6374,VALID,113,VALID,0,
2014-11-22, 01:32:05,VALID,916.947,VALID,0,VALID,97.8313,VALID,0,VALID,20.678,VALID,113,VALID,0,
2014-11-22, 01:33:05,VALID,916.921,VALID,0,VALID,97.8084,VALID,0,VALID,20.6975,VALID,113,VALID,0,
2014-11-22, 01:34:05,VALID,916.884,VALID,0,VALID,97.8313,VALID,0,VALID,20.6764,VALID,113,VALID,0,
2014-11-22, 01:35:05,VALID,916.917,VALID,0,VALID,97.8008,VALID,0,VALID,20.6975,VALID,113,VALID,0,
2014-11-22, 01:36:05,VALID,916.921,VALID,0,VALID,97.7932,VALID,0,VALID,20.6959,VALID,113,VALID,0,
2014-11-22, 01:37:05,VALID,916.895,VALID,0,VALID,97.8084,VALID,0,VALID,20.7365,VALID,113,VALID,0,
2014-11-22, 01:38:05,VALID,916.871,VALID,0,VALID,97.8008,VALID,0,VALID,20.756,VALID,113,VALID,0,
2014-11-22, 01:39:05,VALID,916.853,VALID,0,VALID,97.7856,VALID,0,VALID,20.7349,VALID,113,VALID,0,
2014-11-22, 01:40:05,VALID,916.865,VALID,0,VALID,97.8237,VALID,0,VALID,20.7365,VALID,113,VALID,0,
2014-11-22, 01:41:05,VALID,916.827,VALID,0,VALID,97.816,VALID,0,VALID,20.756,VALID,113,VALID,0,
2014-11-22, 01:42:05,VALID,916.82,VALID,0,VALID,97.8008,VALID,0,VALID,20.7755,VALID,113,VALID,0,
2014-11-22, 01:43:05,VALID,916.779,VALID,0,VALID,97.8008,VALID,0,VALID,20.7365,VALID,113,VALID,0,
2014-11-22, 01:44:05,VALID,916.769,VALID,0,VALID,97.816,VALID,0,VALID,20.7365,VALID,113,VALID,0,
2014-11-22, 01:45:05,VALID,916.76,VALID,0,VALID,97.816,VALID,0,VALID,20.7365,VALID,113,VALID,0,
2014-11-22, 01:46:05,VALID,916.767,VALID,0,VALID,97.816,VALID,0,VALID,20.7365,VALID,113,VALID,0,
2014-11-22, 01:47:05,VALID,916.724,VALID,0,VALID,97.8008,VALID,0,VALID,20.7365,VALID,113,VALID,0,
2014-11-22, 01:48:05,VALID,916.74,VALID,0,VALID,97.7856,VALID,0,VALID,20.7365,VALID,113,VALID,0,
2014-11-22, 01:49:05,VALID,916.753,VALID,0,VALID,97.7856,VALID,0,VALID,20.7544,VALID,113,VALID,0,
2014-11-22, 01:50:05,VALID,916.737,VALID,0,VALID,97.7932,VALID,0,VALID,20.756,VALID,113,VALID,0,
2014-11-22, 01:51:05,VALID,916.749,VALID,0,VALID,97.816,VALID,0,VALID,20.7365,VALID,113,VALID,0,
2014-11-22, 01:52:05,VALID,916.75,VALID,0,VALID,97.8237,VALID,0,VALID,20.7365,VALID,113,VALID,0,
2014-11-22, 01:53:05,VALID,916.737,VALID,0,VALID,97.816,VALID,0,VALID,20.7365,VALID,113,VALID,0,
2014-11-22, 01:54:05,VALID,916.712,VALID,0,VALID,97.8313,VALID,0,VALID,20.7365,VALID,113,VALID,0,
2014-11-22, 01:55:05,VALID,916.725,VALID,0,VALID,97.8084,VALID,0,VALID,20.6959,VALID,113,VALID,0,
2014-11-22, 01:56:05,VALID,916.703,VALID,0,VALID,97.8237,VALID,0,VALID,20.7365,VALID,113,VALID,0,
2014-11-22, 01:57:05,VALID,916.701,VALID,0,VALID,97.8084,VALID,0,VALID,20.7365,VALID,113,VALID,0,
2014-11-22, 01:58:05,VALID,916.703,VALID,0,VALID,97.816,VALID,0,VALID,20.756,VALID,113,VALID,0,
2014-11-22, 01:59:05,VALID,916.701,VALID,0,VALID,97.816,VALID,0,VALID,20.756,VALID,113,VALID,0,
2014-11-22, 02:00:05,VALID,916.676,VALID,0,VALID,97.816,VALID,0,VALID,20.756,VALID,113,VALID,0,
2014-11-22, 02:01:05,VALID,916.667,VALID,0,VALID,97.8008,VALID,0,VALID,20.756,VALID,113,VALID,0,
2014-11-22, 02:02:05,VALID,916.647,VALID,0,VALID,97.8237,VALID,0,VALID,20.7755,VALID,113,VALID,0,
2014-11-22, 02:03:05,VALID,916.649,VALID,0,VALID,97.8008,VALID,0,VALID,20.795,VALID,113,VALID,0,
2014-11-22, 02:04:05,VALID,916.629,VALID,0,VALID,97.816,VALID,0,VALID,20.795,VALID,113,VALID,0,
2014-11-22, 02:05:05,VALID,916.614,VALID,0,VALID,97.7932,VALID,0,VALID,20.795,VALID,113,VALID,0,
2014-11-22, 02:06:05,VALID,916.621,VALID,0,VALID,97.8084,VALID,0,VALID,20.795,VALID,113,VALID,0,
2014-11-22, 02:07:05,VALID,916.586,VALID,0,VALID,97.8237,VALID,0.107441,VALID,20.756,VALID,113,VALID,0,
2014-11-22, 02:08:05,VALID,916.585,VALID,0,VALID,97.8389,VALID,0,VALID,20.7349,VALID,113,VALID,0,
2014-11-22, 02:09:05,VALID,916.565,VALID,0,VALID,97.8084,VALID,0,VALID,20.756,VALID,113,VALID,0,
2014-11-22, 02:10:05,VALID,916.573,VALID,0,VALID,97.8084,VALID,0,VALID,20.717,VALID,113,VALID,0,
2014-11-22, 02:11:05,VALID,916.55,VALID,0,VALID,97.8313,VALID,0,VALID,20.7365,VALID,113,VALID,0,
2014-11-22, 02:12:05,VALID,916.527,VALID,0,VALID,97.8313,VALID,0,VALID,20.7365,VALID,114,VALID,0,
2014-11-22, 02:13:05,VALID,916.493,VALID,0,VALID,97.8313,VALID,0,VALID,20.6959,VALID,113,VALID,0,
2014-11-22, 02:14:05,VALID,916.474,VALID,0,VALID,97.816,VALID,0,VALID,20.717,VALID,107,VALID,0,
2014-11-22, 02:15:05,VALID,916.5,VALID,0,VALID,97.8313,VALID,0,VALID,20.717,VALID,107,VALID,0,
2014-11-22, 02:16:05,VALID,916.477,VALID,0,VALID,97.816,VALID,0,VALID,20.717,VALID,107,VALID,0,
2014-11-22, 02:17:05,VALID,916.482,VALID,0,VALID,97.8313,VALID,0,VALID,20.7365,VALID,107,VALID,0,
2014-11-22, 02:18:05,VALID,916.436,VALID,0,VALID,97.8465,VALID,0,VALID,20.6975,VALID,107,VALID,0,
2014-11-22, 02:19:05,VALID,916.458,VALID,0,VALID,97.8313,VALID,0,VALID,20.6585,VALID,107,VALID,0,
2014-11-22, 02:20:05,VALID,916.443,VALID,0,VALID,97.8618,VALID,0,VALID,20.6585,VALID,107,VALID,0,
2014-11-22, 02:21:05,VALID,916.396,VALID,0,VALID,97.8465,VALID,0,VALID,20.6374,VALID,107,VALID,0,
2014-11-22, 02:22:05,VALID,916.391,VALID,0,VALID,97.8465,VALID,0,VALID,20.6194,VALID,107,VALID,0,
2014-11-22, 02:23:05,VALID,916.359,VALID,0,VALID,97.8313,VALID,0,VALID,20.5984,VALID,107,VALID,0,
2014-11-22, 02:24:05,VALID,916.328,VALID,0,VALID,97.8389,VALID,0,VALID,20.6194,VALID,107,VALID,0,
2014-11-22, 02:25:05,VALID,916.352,VALID,0,VALID,97.8237,VALID,0,VALID,20.639,VALID,107,VALID,0,
2014-11-22, 02:26:05,VALID,916.303,VALID,0,VALID,97.8389,VALID,0,VALID,20.639,VALID,107,VALID,0,
2014-11-22, 02:27:05,VALID,916.313,VALID,0,VALID,97.8389,VALID,0,VALID,20.639,VALID,107,VALID,0,
2014-11-22, 02:28:05,VALID,916.271,VALID,0,VALID,97.8465,VALID,0,VALID,20.6374,VALID,107,VALID,0,
2014-11-22, 02:29:05,VALID,916.258,VALID,0,VALID,97.8237,VALID,0,VALID,20.6585,VALID,107,VALID,0,
2014-11-22, 02:30:05,VALID,916.245,VALID,0,VALID,97.8313,VALID,0,VALID,20.6179,VALID,107,VALID,0,
2014-11-22, 02:31:05,VALID,916.254,VALID,0,VALID,97.8465,VALID,0,VALID,20.6194,VALID,107,VALID,0,
2014-11-22, 02:32:05,VALID,916.241,VALID,0,VALID,97.8389,VALID,0,VALID,20.6194,VALID,107,VALID,0,
2014-11-22, 02:33:05,VALID,916.236,VALID,0,VALID,97.8389,VALID,0,VALID,20.5999,VALID,107,VALID,0,
2014-11-22, 02:34:05,VALID,916.259,VALID,0,VALID,97.8313,VALID,0,VALID,20.5999,VALID,107,VALID,0,
2014-11-22, 02:35:05,VALID,916.256,VALID,0,VALID,97.8237,VALID,0,VALID,20.5804,VALID,107,VALID,0,
2014-11-22, 02:36:05,VALID,916.259,VALID,0,VALID,97.8542,VALID,0.107441,VALID,20.5789,VALID,107,VALID,0,
2014-11-22, 02:37:05,VALID,916.283,VALID,0,VALID,97.816,VALID,0,VALID,20.5789,VALID,103,VALID,0,
2014-11-22, 02:38:05,VALID,916.309,VALID,0,VALID,97.8389,VALID,0,VALID,20.5804,VALID,103,VALID,0,
2014-11-22, 02:39:05,VALID,916.312,VALID,0,VALID,97.8465,VALID,0,VALID,20.5804,VALID,103,VALID,0,
2014-11-22, 02:40:05,VALID,916.272,VALID,0,VALID,97.8542,VALID,0,VALID,20.5804,VALID,103,VALID,0,
2014-11-22, 02:41:05,VALID,916.277,VALID,0,VALID,97.8465,VALID,0,VALID,20.5804,VALID,103,VALID,0,
2014-11-22, 02:42:05,VALID,916.26,VALID,0,VALID,97.8465,VALID,0,VALID,20.5594,VALID,103,VALID,0,
2014-11-22, 02:43:05,VALID,916.272,VALID,0,VALID,97.8465,VALID,0,VALID,20.5594,VALID,103,VALID,0,
2014-11-22, 02:44:05,VALID,916.235,VALID,0,VALID,97.8389,VALID,0,VALID,20.5804,VALID,103,VALID,0,
2014-11-22, 02:45:05,VALID,916.211,VALID,0,VALID,97.8542,VALID,0,VALID,20.5594,VALID,103,VALID,0,
2014-11-22, 02:46:05,VALID,916.207,VALID,0,VALID,97.8313,VALID,0.107441,VALID,20.5804,VALID,103,VALID,0,
2014-11-22, 02:47:05,VALID,916.205,VALID,0,VALID,97.8465,VALID,0,VALID,20.5594,VALID,103,VALID,0,
2014-11-22, 02:48:05,VALID,916.192,VALID,0,VALID,97.8465,VALID,0,VALID,20.5789,VALID,103,VALID,0,
2014-11-22, 02:49:05,VALID,916.18,VALID,0,VALID,97.8465,VALID,0,VALID,20.5804,VALID,103,VALID,0,
2014-11-22, 02:50:05,VALID,916.158,VALID,0,VALID,97.8465,VALID,0,VALID,20.5609,VALID,103,VALID,0,
2014-11-22, 02:51:05,VALID,916.173,VALID,0,VALID,97.8389,VALID,0,VALID,20.5609,VALID,103,VALID,0,
2014-11-22, 02:52:05,VALID,916.137,VALID,0,VALID,97.8465,VALID,0,VALID,20.5609,VALID,103,VALID,0,
2014-11-22, 02:53:05,VALID,916.108,VALID,0,VALID,97.8542,VALID,0,VALID,20.5609,VALID,103,VALID,0,
2014-11-22, 02:54:05,VALID,916.128,VALID,0,VALID,97.8618,VALID,0,VALID,20.5414,VALID,103,VALID,0,
2014-11-22, 02:55:05,VALID,916.095,VALID,0,VALID,97.8618,VALID,0,VALID,20.5414,VALID,103,VALID,0,
2014-11-22, 02:56:05,VALID,916.06,VALID,0,VALID,97.8542,VALID,0,VALID,20.5414,VALID,103,VALID,0,
2014-11-22, 02:57:05,VALID,916.038,VALID,0,VALID,97.8694,VALID,0,VALID,20.5414,VALID,103,VALID,0,
2014-11-22, 02:58:05,VALID,916.035,VALID,0,VALID,97.8694,VALID,0,VALID,20.5204,VALID,103,VALID,0,
2014-11-22, 02:59:05,VALID,916.024,VALID,0,VALID,97.8694,VALID,0,VALID,20.5414,VALID,103,VALID,0,
2014-11-22, 03:00:05,VALID,915.998,VALID,0,VALID,97.8542,VALID,0,VALID,20.5204,VALID,103,VALID,0,
2014-11-22, 03:01:05,VALID,915.956,VALID,0,VALID,97.8465,VALID,0,VALID,20.5204,VALID,103,VALID,0,
2014-11-22, 03:02:05,VALID,915.91,VALID,0,VALID,97.8618,VALID,0,VALID,20.5414,VALID,103,VALID,0,
2014-11-22, 03:03:05,VALID,915.885,VALID,0,VALID,97.8465,VALID,0,VALID,20.5609,VALID,103,VALID,0,
2014-11-22, 03:04:05,VALID,915.858,VALID,0,VALID,97.8618,VALID,0,VALID,20.5414,VALID,103,VALID,0,
2014-11-22, 03:05:05,VALID,915.812,VALID,0,VALID,97.8465,VALID,0,VALID,20.5204,VALID,103,VALID,0,
2014-11-22, 03:06:05,VALID,915.802,VALID,0,VALID,97.8389,VALID,0,VALID,20.5609,VALID,103,VALID,0,
2014-11-22, 03:07:05,VALID,915.788,VALID,0,VALID,97.8465,VALID,0,VALID,20.5414,VALID,103,VALID,0,
2014-11-22, 03:08:05,VALID,915.783,VALID,0,VALID,97.8618,VALID,0.107441,VALID,20.5009,VALID,103,VALID,0,
2014-11-22, 03:09:05,VALID,915.751,VALID,0,VALID,97.8618,VALID,0.107441,VALID,20.4829,VALID,103,VALID,0,
2014-11-22, 03:10:05,VALID,915.788,VALID,0,VALID,97.8999,VALID,0,VALID,20.4244,VALID,103,VALID,0,
2014-11-22, 03:11:05,VALID,915.74,VALID,0,VALID,97.8999,VALID,0,VALID,20.3659,VALID,105,VALID,0,
2014-11-22, 03:12:05,VALID,915.763,VALID,0,VALID,97.8999,VALID,0,VALID,20.3464,VALID,114,VALID,0,
2014-11-22, 03:13:05,VALID,915.733,VALID,0,VALID,97.9075,VALID,0,VALID,20.3269,VALID,117,VALID,0,
2014-11-22, 03:14:05,VALID,915.725,VALID,0,VALID,97.8999,VALID,0,VALID,20.3058,VALID,117,VALID,0,
2014-11-22, 03:15:05,VALID,915.712,VALID,0,VALID,97.8999,VALID,0,VALID,20.3269,VALID,117,VALID,0,
2014-11-22, 03:16:05,VALID,915.673,VALID,0,VALID,97.9152,VALID,0,VALID,20.3269,VALID,117,VALID,0,
2014-11-22, 03:17:05,VALID,915.617,VALID,0,VALID,97.9075,VALID,0,VALID,20.3269,VALID,117,VALID,0,
2014-11-22, 03:18:05,VALID,915.619,VALID,0,VALID,97.8923,VALID,0,VALID,20.3464,VALID,117,VALID,0,
2014-11-22, 03:19:05,VALID,915.637,VALID,0,VALID,97.8999,VALID,0,VALID,20.3253,VALID,117,VALID,0.94375,
2014-11-22, 03:20:05,VALID,915.61,VALID,0,VALID,97.8923,VALID,0,VALID,20.3058,VALID,117,VALID,0,
2014-11-22, 03:21:05,VALID,915.576,VALID,0,VALID,97.8847,VALID,0,VALID,20.3269,VALID,109,VALID,0,
2014-11-22, 03:22:05,VALID,915.561,VALID,0,VALID,97.8847,VALID,0,VALID,20.3269,VALID,112,VALID,0,
2014-11-22, 03:23:05,VALID,915.593,VALID,0,VALID,97.8847,VALID,0,VALID,20.3464,VALID,128,VALID,0,
2014-11-22, 03:24:05,VALID,915.605,VALID,0,VALID,97.8923,VALID,0,VALID,20.3448,VALID,128,VALID,0,
2014-11-22, 03:25:05,VALID,915.548,VALID,0,VALID,97.8999,VALID,0,VALID,20.3464,VALID,128,VALID,0,
2014-11-22, 03:26:05,VALID,915.552,VALID,0,VALID,97.877,VALID,0,VALID,20.3464,VALID,128,VALID,0,
2014-11-22, 03:27:04,VALID,915.541,VALID,0,VALID,97.8694,VALID,0,VALID,20.3659,VALID,129,VALID,1.19687,
2014-11-22, 03:28:04,VALID,915.568,VALID,0,VALID,97.8847,VALID,0,VALID,20.3464,VALID,128,VALID,0.937891,
2014-11-22, 03:29:04,VALID,915.543,VALID,0,VALID,97.8847,VALID,0.107441,VALID,20.3659,VALID,143,VALID,1.31914,
2014-11-22, 03:30:04,VALID,915.533,VALID,0,VALID,97.877,VALID,0,VALID,20.3659,VALID,125,VALID,1.21641,
2014-11-22, 03:31:04,VALID,915.509,VALID,0,VALID,97.8999,VALID,0,VALID,20.3854,VALID,137,VALID,0.681641,
2014-11-22, 03:32:04,VALID,915.503,VALID,0,VALID,97.877,VALID,0,VALID,20.3854,VALID,139,VALID,0.562891,
2014-11-22, 03:33:04,VALID,915.45,VALID,0,VALID,97.877,VALID,0,VALID,20.4049,VALID,141,VALID,0.642578,
2014-11-22, 03:34:04,VALID,915.503,VALID,0,VALID,97.8847,VALID,0,VALID,20.4049,VALID,145,VALID,0.575,
2014-11-22, 03:35:04,VALID,915.475,VALID,0,VALID,97.8999,VALID,0,VALID,20.4049,VALID,137,VALID,0.528516,
2014-11-22, 03:36:04,VALID,915.451,VALID,0,VALID,97.877,VALID,0,VALID,20.4049,VALID,150,VALID,0,
2014-11-22, 03:37:04,VALID,915.451,VALID,0,VALID,97.8618,VALID,0,VALID,20.4049,VALID,150,VALID,0,
2014-11-22, 03:38:04,VALID,915.452,VALID,0,VALID,97.8618,VALID,0,VALID,20.4049,VALID,148,VALID,0,
2014-11-22, 03:39:04,VALID,915.436,VALID,0,VALID,97.877,VALID,0,VALID,20.4244,VALID,150,VALID,0,
2014-11-22, 03:40:04,VALID,915.411,VALID,0,VALID,97.8694,VALID,0,VALID,20.4244,VALID,150,VALID,0,
2014-11-22, 03:41:04,VALID,915.43,VALID,0,VALID,97.877,VALID,0,VALID,20.4244,VALID,151,VALID,0,
2014-11-22, 03:42:04,VALID,915.398,VALID,0,VALID,97.8618,VALID,0,VALID,20.4049,VALID,149,VALID,0,
2014-11-22, 03:43:04,VALID,915.401,VALID,0,VALID,97.877,VALID,0,VALID,20.4244,VALID,149,VALID,0,
2014-11-22, 03:44:04,VALID,915.423,VALID,0,VALID,97.8618,VALID,0,VALID,20.4439,VALID,149,VALID,0,
2014-11-22, 03:45:04,VALID,915.41,VALID,0,VALID,97.877,VALID,0,VALID,20.4439,VALID,149,VALID,0,
2014-11-22, 03:46:04,VALID,915.382,VALID,0,VALID,97.8694,VALID,0,VALID,20.4439,VALID,149,VALID,0,
2014-11-22, 03:47:04,VALID,915.395,VALID,0,VALID,97.8999,VALID,0,VALID,20.4439,VALID,149,VALID,0,
2014-11-22, 03:48:04,VALID,915.392,VALID,0,VALID,97.877,VALID,0,VALID,20.4244,VALID,150,VALID,0,
2014-11-22, 03:49:04,VALID,915.411,VALID,0,VALID,97.8847,VALID,0,VALID,20.4049,VALID,151,VALID,0,
2014-11-22, 03:50:04,VALID,915.427,VALID,0,VALID,97.8999,VALID,0,VALID,20.4049,VALID,151,VALID,0,
2014-11-22, 03:51:04,VALID,915.45,VALID,0,VALID,97.877,VALID,0,VALID,20.3643,VALID,144,VALID,0,
2014-11-22, 03:52:04,VALID,915.451,VALID,0,VALID,97.8847,VALID,0,VALID,20.3854,VALID,144,VALID,0,
2014-11-22, 03:53:04,VALID,915.448,VALID,0,VALID,97.8923,VALID,0,VALID,20.3854,VALID,144,VALID,0,
2014-11-22, 03:54:04,VALID,915.468,VALID,0,VALID,97.9075,VALID,0,VALID,20.3464,VALID,144,VALID,0,
2014-11-22, 03:55:04,VALID,915.482,VALID,0,VALID,97.8923,VALID,0,VALID,20.3659,VALID,147,VALID,0,
2014-11-22, 03:56:04,VALID,915.472,VALID,0,VALID,97.8999,VALID,0,VALID,20.3464,VALID,137,VALID,0,
2014-11-22, 03:57:04,VALID,915.441,VALID,0,VALID,97.8999,VALID,0,VALID,20.3464,VALID,129,VALID,0,
2014-11-22, 03:58:04,VALID,915.453,VALID,0,VALID,97.8999,VALID,0,VALID,20.3659,VALID,142,VALID,0,